Eindhoven, Netherlands

8:23 PM CEST on May 26, 2017 (GMT +0200)
Eindhoven Air Base

Weather History for EHEH - January, 2013

Change the Weather History Date:

Wednesday, January 16, 2013

  Actual Average Record
Temperature  
Mean Temperature 15 °F -  
Max Temperature 24 °F 42 °F 55 °F (2011)
Min Temperature 6 °F 32 °F 6 °F (2013)
Degree Days  
Heating Degree Days 50    
Moisture  
Dew Point 16 °F    
Average Humidity 97    
Maximum Humidity 100    
Minimum Humidity 85    
Precipitation  
Precipitation 0.00 in - - ()
Sea Level Pressure  
Sea Level Pressure 29.85 in    
Wind  
Wind Speed 4 mph ()    
Max Wind Speed 7 mph    
Max Gust Speed -    
Visibility 1.9 miles    
Events Fog , Snow    
Averages and records for this station are not official NWS values.
T = Trace of Precipitation, MM = Missing Value Source: Averaged Metar Reports

Daily Weather History Graph

Daily Weather History Graph

Search for Another Location

Airport or City:

Trip Planner

Search our weather history database for the weather conditions in past years. The results will help you decide how hot, cold, wet, or windy it might be!

Date:

Astronomy

Jan. 16, 2013 Rise Set
Actual Time 8:36 AM CET 5:00 PM CET
Civil Twilight 7:57 AM CET 5:38 PM CET
Nautical Twilight 7:16 AM CET 6:20 PM CET
Astronomical Twilight 6:36 AM CET 7:00 PM CET
Moon 10:22 AM CET (1/16) 11:22 PM CET (1/16)
Length of Visible Light 9h 41m
Length of Day
8h 24m
Waxing Crescent, 25% of the Moon is Illuminated
Jan 16
Waxing Crescent
Jan 19
First Quarter
Jan 27
Full
Feb 3
Last Quarter
Feb 10
New

Hourly Weather History & Observations

Time (CET) Temp. Windchill Dew Point Humidity Pressure Visibility Wind Dir Wind Speed Gust Speed Precip Events Conditions
12:03 AM 26.6 °F 19.1 °F 24.8 °F 93% 29.80 in 5.0 mi North 6.9 mph - N/A   Overcast
12:07 AM 26.6 °F 19.1 °F 24.8 °F 93% 29.80 in 4.3 mi North 6.9 mph - N/A   Overcast
12:11 AM 24.8 °F 16.9 °F 24.8 °F 100% 29.80 in 5.0 mi North 6.9 mph - N/A   Overcast
12:25 AM 24.8 °F 16.9 °F 23.0 °F 93% 29.80 in 5.6 mi North 6.9 mph - N/A   Overcast
12:55 AM 23.0 °F 15.8 °F 21.2 °F 93% 29.80 in 5.6 mi NNW 5.8 mph - N/A   Mostly Cloudy
1:00 AM 23 °F - 22 °F 95% 29.81 in 5 mi NNW 6.7 mph - - Snow Snow
1:25 AM 23.0 °F 17.0 °F 21.2 °F 93% 29.80 in 5.0 mi NW 4.6 mph - N/A   Mostly Cloudy
1:47 AM 21.2 °F 14.9 °F 21.2 °F 100% 29.80 in 4.3 mi NNW 4.6 mph - N/A   Mostly Cloudy
1:51 AM 21.2 °F 14.9 °F 21.2 °F 100% 29.80 in 5.0 mi NNW 4.6 mph - N/A   Mostly Cloudy
1:55 AM 21.2 °F 14.9 °F 21.2 °F 100% 29.80 in 5.0 mi NNW 4.6 mph - N/A   Mostly Cloudy
2:01 AM 21.2 °F 14.9 °F 19.4 °F 93% 29.80 in 4.3 mi NNW 4.6 mph - N/A   Mostly Cloudy
2:14 AM 19.4 °F 12.8 °F 19.4 °F 100% 29.80 in - NW 4.6 mph - N/A   Partly Cloudy
2:25 AM 19.4 °F - 17.6 °F 93% 29.80 in 3.1 mi NW 2.3 mph - N/A   Partly Cloudy
2:32 AM 17.6 °F - 17.6 °F 100% 29.80 in - NW 2.3 mph - N/A   Scattered Clouds
2:36 AM 19.4 °F 14.3 °F 17.6 °F 93% 29.80 in 3.1 mi WNW 3.5 mph - N/A   Mostly Cloudy
2:50 AM 17.6 °F 12.3 °F 17.6 °F 100% 29.80 in 3.1 mi NW 3.5 mph - N/A   Overcast
2:55 AM 17.6 °F 12.3 °F 15.8 °F 93% 29.80 in - NW 3.5 mph - N/A   Overcast
3:01 AM 17.6 °F 10.7 °F 17.6 °F 100% 29.80 in 3.1 mi WNW 4.6 mph - N/A   Overcast
3:05 AM 19.4 °F 11.5 °F 19.4 °F 100% 29.80 in 2.8 mi WNW 5.8 mph - N/A   Overcast
3:10 AM 19.4 °F 11.5 °F 19.4 °F 100% 29.80 in 3.1 mi NW 5.8 mph - N/A   Overcast
3:25 AM 21.2 °F 13.6 °F 19.4 °F 93% 29.80 in 3.7 mi WNW 5.8 mph - N/A   Overcast
3:55 AM 19.4 °F - 17.6 °F 93% 29.80 in 3.7 mi NW 2.3 mph - N/A   Mostly Cloudy
4:00 AM 18 °F - 17 °F 94% 29.83 in 3 mi WNW 2.2 mph - -   Mist
4:02 AM 17.6 °F - 17.6 °F 100% 29.80 in - WNW 2.3 mph - N/A   Partly Cloudy
4:06 AM 17.6 °F - 15.8 °F 93% 29.80 in 3.1 mi WNW 2.3 mph - N/A   Partly Cloudy
4:10 AM 15.8 °F 10.2 °F 15.8 °F 100% 29.80 in - WNW 3.5 mph - N/A   Partly Cloudy
4:15 AM 15.8 °F - 15.8 °F 100% 29.80 in - NW 2.3 mph - N/A   Mist
4:25 AM 14.0 °F - 14.0 °F 100% 29.80 in 1.7 mi NNW 2.3 mph - N/A   Mist
4:28 AM 14.0 °F - 14.0 °F 100% 29.80 in 0.8 mi NNW 1.2 mph - N/A   Mist
4:42 AM 15.8 °F - 14.0 °F 93% 29.80 in 1.2 mi WNW 2.3 mph - N/A   Mist
4:55 AM 14.0 °F 8.2 °F 12.2 °F 93% 29.80 in 1.5 mi WNW 3.5 mph - N/A   Scattered Clouds
4:59 AM 14.0 °F 8.2 °F 14.0 °F 100% 29.80 in 0.7 mi WNW 3.5 mph - N/A   Mostly Cloudy
5:05 AM 14.0 °F - 14.0 °F 100% 29.80 in 0.3 mi WNW 2.3 mph - N/A Fog Light Freezing Fog
5:07 AM 15.8 °F - 14.0 °F 93% 29.80 in 0.5 mi NW 2.3 mph - N/A Fog Light Freezing Fog
5:14 AM 14.0 °F - 14.0 °F 100% 29.80 in 1.0 mi NW 2.3 mph - N/A   Mostly Cloudy
5:15 AM 14.0 °F - 12.2 °F 93% 29.80 in 0.6 mi NW 2.3 mph - N/A   Overcast
5:25 AM 14.0 °F - 14.0 °F 100% 29.80 in 1.0 mi NNW 1.2 mph - N/A   Overcast
5:39 AM 15.8 °F - 14.0 °F 93% 29.80 in 1.9 mi NNW 2.3 mph - N/A   Partly Cloudy
5:55 AM 12.2 °F - 12.2 °F 100% 29.80 in 1.4 mi NNW 2.3 mph - N/A   Mist
6:03 AM 14.0 °F - 14.0 °F 100% 29.80 in - NE 2.3 mph - N/A   Mist
6:04 AM 12.2 °F - 12.2 °F 100% 29.80 in - NNE 2.3 mph - N/A   Mist
6:12 AM 12.2 °F - 10.4 °F 92% 29.80 in - North 2.3 mph - N/A   Mist
6:13 AM 12.2 °F - 12.2 °F 100% 29.80 in - North 2.3 mph - N/A   Partly Cloudy
6:25 AM 14.0 °F - 12.2 °F 93% 29.80 in 1.7 mi North 2.3 mph - N/A   Mostly Cloudy
6:36 AM 12.2 °F 6.1 °F 10.4 °F 92% 29.80 in 2.5 mi NW 3.5 mph - N/A   Scattered Clouds
6:39 AM 10.4 °F 2.2 °F 8.6 °F 92% 29.80 in 3.1 mi WNW 4.6 mph - N/A   Mostly Cloudy
6:44 AM 8.6 °F 2.0 °F 6.8 °F 92% 29.80 in - NW 3.5 mph - N/A   Overcast
6:49 AM 10.4 °F - 8.6 °F 92% 29.80 in 3.1 mi NNW 2.3 mph - N/A   Overcast
6:55 AM 12.2 °F - 10.4 °F 92% 29.80 in 3.1 mi North 2.3 mph - N/A   Overcast
7:00 AM 14 °F - 14 °F 100% 29.82 in 3 mi NNE 2.2 mph - -   Mist
7:07 AM 14.0 °F - 14.0 °F 100% 29.80 in 2.8 mi NNE 2.3 mph - N/A   Partly Cloudy
7:18 AM 10.4 °F - 8.6 °F 92% 29.80 in - NNW 2.3 mph - N/A   Mostly Cloudy
7:20 AM 12.2 °F - 10.4 °F 92% 29.80 in - NNW 2.3 mph - N/A   Overcast
7:25 AM 10.4 °F - 6.8 °F 85% 29.80 in - NNW 2.3 mph - N/A   Overcast
7:26 AM 10.4 °F - 8.6 °F 92% 29.80 in - North 2.3 mph - N/A   Overcast
7:37 AM 8.6 °F - 8.6 °F 100% 29.80 in - NNW 2.3 mph - N/A   Scattered Clouds
7:42 AM 10.4 °F - 8.6 °F 92% 29.80 in - WNW 2.3 mph - N/A   Mist
7:55 AM 6.8 °F -2.0 °F 5.0 °F 92% 29.80 in 3.1 mi WNW 4.6 mph - N/A   Mist
7:59 AM 6.8 °F -0.1 °F 5.0 °F 92% 29.80 in - WNW 3.5 mph - N/A   Mist
8:04 AM 8.6 °F - 6.8 °F 92% 29.80 in 3.1 mi North 2.3 mph - N/A   Mist
8:07 AM 8.6 °F - 8.6 °F 100% 29.80 in - North 2.3 mph - N/A   Mist
8:25 AM 10.4 °F - 8.6 °F 92% 29.83 in - NW 2.3 mph - N/A   Mist
8:27 AM 8.6 °F - 8.6 °F 100% 29.83 in 3.1 mi NW 2.3 mph - N/A   Mist
8:31 AM 10.4 °F - 8.6 °F 92% 29.83 in - NNW 2.3 mph - N/A   Mist
8:35 AM 10.4 °F - 8.6 °F 92% 29.83 in 3.1 mi NNW 2.3 mph - N/A   Mist
8:38 AM 8.6 °F - 8.6 °F 100% 29.83 in - NNW 2.3 mph - N/A   Mist
8:46 AM 8.6 °F - 6.8 °F 92% 29.83 in 1.9 mi NNW 2.3 mph - N/A   Mist
8:55 AM 8.6 °F - 6.8 °F 92% 29.83 in 1.2 mi NNE 1.2 mph - N/A   Mist
9:03 AM 8.6 °F - 8.6 °F 100% 29.83 in 0.9 mi NNW 1.2 mph - N/A   Mist
9:09 AM 8.6 °F - 6.8 °F 92% 29.83 in 1.3 mi WNW 1.2 mph - N/A   Partly Cloudy
9:13 AM 6.8 °F - 5.0 °F 92% 29.83 in 0.5 mi WNW 1.2 mph - N/A Fog Light Freezing Fog
9:25 AM 10.4 °F - 8.6 °F 92% 29.83 in - ENE 1.2 mph - N/A   Partly Cloudy
9:29 AM 10.4 °F - 8.6 °F 92% 29.83 in 0.5 mi NE 1.2 mph - N/A Fog Light Freezing Fog
9:35 AM 12.2 °F - 10.4 °F 92% 29.83 in 1.1 mi NW 1.2 mph - N/A   Mist
9:40 AM 10.4 °F - 8.6 °F 92% 29.83 in 0.9 mi NW 1.2 mph - N/A   Mist
9:41 AM 10.4 °F - 8.6 °F 92% 29.83 in 1.3 mi NW 1.2 mph - N/A   Mist
9:55 AM 10.4 °F - 8.6 °F 92% 29.83 in 1.5 mi NW 2.3 mph - N/A   Mist
10:00 AM 10 °F - 9 °F 93% 29.87 in 1 mi 2.2 mph - - Snow Light Snow Showers
10:08 AM 10.4 °F 4.0 °F 8.6 °F 92% 29.86 in - West 3.5 mph - N/A   Partly Cloudy
10:11 AM 10.4 °F 4.0 °F 8.6 °F 92% 29.86 in 1.9 mi NW 3.5 mph - N/A   Partly Cloudy
10:18 AM 10.4 °F - 8.6 °F 92% 29.86 in 0.9 mi NW 2.3 mph - N/A   Partly Cloudy
10:25 AM 10.4 °F - 8.6 °F 92% 29.86 in - NW 1.2 mph - N/A   Partly Cloudy
10:30 AM 10.4 °F - 10.4 °F 100% 29.86 in 1.6 mi NW 2.3 mph - N/A   Scattered Clouds
10:34 AM 12.2 °F 6.1 °F 10.4 °F 92% 29.86 in 0.9 mi NW 3.5 mph - N/A   Mostly Cloudy
10:35 AM 12.2 °F 6.1 °F 12.2 °F 100% 29.86 in - NNW 3.5 mph - N/A   Scattered Clouds
10:39 AM 12.2 °F 6.1 °F 12.2 °F 100% 29.86 in - NNW 3.5 mph - N/A   Mostly Cloudy
10:41 AM 12.2 °F 6.1 °F 12.2 °F 100% 29.86 in - NNW 3.5 mph - N/A   Mostly Cloudy
10:55 AM 14.0 °F 8.2 °F 14.0 °F 100% 29.86 in 3.1 mi North 3.5 mph - N/A   Partly Cloudy
11:09 AM 15.8 °F 10.2 °F 14.0 °F 93% 29.86 in 3.1 mi North 3.5 mph - N/A   Partly Cloudy
11:13 AM 15.8 °F 10.2 °F 15.8 °F 100% 29.86 in 2.8 mi North 3.5 mph - N/A   Scattered Clouds
11:17 AM 15.8 °F 8.6 °F 15.8 °F 100% 29.86 in 2.8 mi North 4.6 mph - N/A   Mostly Cloudy
11:25 AM 17.6 °F 10.7 °F 17.6 °F 100% 29.86 in - North 4.6 mph - N/A   Overcast
11:36 AM 17.6 °F 9.3 °F 17.6 °F 100% 29.86 in 1.8 mi NNE 5.8 mph - N/A   Overcast
11:44 AM 17.6 °F 9.3 °F 17.6 °F 100% 29.86 in 1.3 mi NNE 5.8 mph - N/A   Overcast
11:55 AM 17.6 °F 10.7 °F 17.6 °F 100% 29.86 in 1.4 mi North 4.6 mph - N/A   Mostly Cloudy
12:15 PM 19.4 °F 11.5 °F 19.4 °F 100% 29.86 in 1.2 mi East 5.8 mph - N/A   Overcast
12:17 PM 19.4 °F 11.5 °F 19.4 °F 100% 29.86 in 1.1 mi ENE 5.8 mph - N/A   Overcast
12:18 PM 19.4 °F 11.5 °F 17.6 °F 93% 29.86 in 1.2 mi ENE 5.8 mph - N/A   Overcast
12:25 PM 19.4 °F 11.5 °F 19.4 °F 100% 29.86 in 1.2 mi ENE 5.8 mph - N/A   Overcast
12:33 PM 19.4 °F 11.5 °F 19.4 °F 100% 29.86 in 1.0 mi ENE 5.8 mph - N/A   Mostly Cloudy
12:34 PM 19.4 °F 11.5 °F 19.4 °F 100% 29.86 in 0.9 mi ENE 5.8 mph - N/A   Mostly Cloudy
12:55 PM 19.4 °F 12.8 °F 19.4 °F 100% 29.86 in 0.8 mi ENE 4.6 mph - N/A   Overcast
12:59 PM 21.2 °F 14.9 °F 19.4 °F 93% 29.86 in 1.1 mi ENE 4.6 mph - N/A   Overcast
1:00 PM 20 °F - 20 °F 97% 29.87 in 1 mi ENE 4.5 mph - - Snow Snow Grains
1:00 PM 21.2 °F 14.9 °F 19.4 °F 93% 29.86 in 0.9 mi ENE 4.6 mph - N/A   Overcast
1:11 PM 21.2 °F 14.9 °F 19.4 °F 93% 29.86 in 0.9 mi NE 4.6 mph - N/A Snow Light Snow Grains
1:20 PM 21.2 °F 14.9 °F 19.4 °F 93% 29.86 in - NE 4.6 mph - N/A Snow Light Snow Grains
1:25 PM 21.2 °F 14.9 °F 19.4 °F 93% 29.86 in 0.6 mi NE 4.6 mph - N/A Snow Light Snow Grains
1:33 PM 21.2 °F 13.6 °F 19.4 °F 93% 29.86 in 1.1 mi NE 5.8 mph - N/A Snow Light Snow Grains
1:37 PM 21.2 °F 14.9 °F 19.4 °F 93% 29.86 in 0.7 mi ENE 4.6 mph - N/A   Mostly Cloudy
1:41 PM 21.2 °F 16.4 °F 21.2 °F 100% 29.86 in 0.7 mi ENE 3.5 mph - N/A Snow Light Snow Grains
1:50 PM 21.2 °F 16.4 °F 21.2 °F 100% 29.86 in - NNE 3.5 mph - N/A Snow Light Snow Grains
1:55 PM 21.2 °F 16.4 °F 21.2 °F 100% 29.86 in - NE 3.5 mph - N/A Snow Light Snow Grains
1:56 PM 21.2 °F 16.4 °F 21.2 °F 100% 29.86 in 0.6 mi East 3.5 mph - N/A Snow Light Snow Grains
1:59 PM 21.2 °F 16.4 °F 21.2 °F 100% 29.86 in 0.6 mi East 3.5 mph - N/A Snow Light Snow Grains
2:05 PM 21.2 °F 14.9 °F 21.2 °F 100% 29.86 in 0.8 mi East 4.6 mph - N/A Snow Light Snow Grains
2:16 PM 21.2 °F 14.9 °F 21.2 °F 100% 29.86 in 0.7 mi East 4.6 mph - N/A   Mostly Cloudy
2:25 PM 21.2 °F 16.4 °F 21.2 °F 100% 29.86 in 0.7 mi East 3.5 mph - N/A Snow Light Snow
2:26 PM 21.2 °F 14.9 °F 21.2 °F 100% 29.86 in 0.7 mi NE 4.6 mph - N/A   Overcast
2:55 PM 23.0 °F 15.8 °F 21.2 °F 93% 29.86 in 0.9 mi ENE 5.8 mph - N/A   Overcast
3:14 PM 23.0 °F 17.0 °F 23.0 °F 100% 29.86 in 1.0 mi NE 4.6 mph - N/A   Overcast
3:25 PM 23.0 °F 15.8 °F 23.0 °F 100% 29.86 in 1.1 mi NE 5.8 mph - N/A   Overcast
3:30 PM 23.0 °F 15.8 °F 23.0 °F 100% 29.86 in 1.1 mi ENE 5.8 mph - N/A   Overcast
3:41 PM 23.0 °F 17.0 °F 23.0 °F 100% 29.86 in 1.1 mi ENE 4.6 mph - N/A   Mostly Cloudy
3:55 PM 23.0 °F 17.0 °F 23.0 °F 100% 29.89 in 1.1 mi NNE 4.6 mph - N/A   Overcast
4:00 PM 23 °F - 22 °F 95% 29.90 in 1 mi NNE 4.5 mph - - Snow Snow
4:25 PM 23.0 °F 17.0 °F 23.0 °F 100% 29.89 in 1.1 mi East 4.6 mph - N/A   Overcast
4:38 PM 23.0 °F 15.8 °F 23.0 °F 100% 29.89 in 1.1 mi NNE 5.8 mph - N/A   Overcast
4:55 PM 23.0 °F - 23.0 °F 100% 29.89 in 1.2 mi NNE 2.3 mph - N/A   Overcast
5:08 PM 23.0 °F 17.0 °F 23.0 °F 100% 29.89 in 0.9 mi North 4.6 mph - N/A   Overcast
5:12 PM 23.0 °F 17.0 °F 23.0 °F 100% 29.89 in 1.0 mi North 4.6 mph - N/A   Overcast
5:25 PM 23.0 °F 17.0 °F 23.0 °F 100% 29.92 in 1.1 mi North 4.6 mph - N/A   Overcast
5:55 PM 23.0 °F 17.0 °F 23.0 °F 100% 29.92 in 1.5 mi North 4.6 mph - N/A   Overcast
6:25 PM 23.0 °F 17.0 °F 23.0 °F 100% 29.92 in 1.4 mi North 4.6 mph - N/A   Overcast
6:35 PM 23.0 °F 17.0 °F 23.0 °F 100% 29.92 in 1.4 mi North 4.6 mph - N/A   Overcast
6:55 PM 23.0 °F 17.0 °F 23.0 °F 100% 29.92 in 1.4 mi NNW 4.6 mph - N/A   Overcast
7:00 PM 23 °F - 23 °F 98% 29.95 in 1 mi NNW 4.5 mph - -   Mist
7:25 PM 23.0 °F 15.8 °F 23.0 °F 100% 29.95 in 1.4 mi NNW 5.8 mph - N/A   Overcast
7:55 PM 23.0 °F 17.0 °F 23.0 °F 100% 29.95 in 1.4 mi North 4.6 mph - N/A   Overcast
8:25 PM 23.0 °F 17.0 °F 23.0 °F 100% 29.95 in 1.6 mi North 4.6 mph - N/A   Overcast
8:55 PM 23.0 °F 15.8 °F 23.0 °F 100% 29.95 in 1.6 mi North 5.8 mph - N/A   Overcast
9:25 PM 23.0 °F 15.8 °F 23.0 °F 100% 29.95 in 1.6 mi North 5.8 mph - N/A   Overcast
9:55 PM 23.0 °F 17.0 °F 23.0 °F 100% 29.95 in 1.6 mi North 4.6 mph - N/A   Overcast
10:00 PM 24 °F - 24 °F 97% 29.97 in 1 mi North 4.5 mph - -   Mist
10:25 PM 24.8 °F 17.9 °F 23.0 °F 93% 29.95 in 1.6 mi NNE 5.8 mph - N/A   Overcast
10:32 PM 24.8 °F 16.9 °F 23.0 °F 93% 29.98 in 1.5 mi NNE 6.9 mph - N/A   Overcast
10:55 PM 24.8 °F 17.9 °F 23.0 °F 93% 29.98 in 1.5 mi NE 5.8 mph - N/A   Overcast
11:25 PM 23.0 °F 15.8 °F 23.0 °F 100% 29.98 in 1.5 mi NNE 5.8 mph - N/A   Overcast
11:55 PM 23.0 °F 15.8 °F 23.0 °F 100% 29.98 in 1.6 mi NNE 5.8 mph - N/A   Overcast